When you browse on this site, cookies collect data to enhance your experience and personalize the content and advertising you see.
Visit our Privacy Policy to learn more. By continuing to use the site, you agree to this use of cookies and data.

Meteo orario Shahtarsk

Oggi, 23 Settembre, Mercoledi

Tempo Temperatura Precipitazioni Vento Pressione Umidità
00:00 +14°C° 0 mm 1 m/s 744 mm Hg 33%
01:00 +13°C° 0 mm 1 m/s 744 mm Hg 33%
02:00 +13°C° 0 mm 1 m/s 744 mm Hg 33%
03:00 +12°C° 0 mm 0 m/s 744 mm Hg 34%
04:00 +12°C° 0 mm 0 m/s 744 mm Hg 34%
05:00 +12°C° 0 mm 1 m/s 744 mm Hg 35%
06:00 +12°C° 0 mm 1 m/s 744 mm Hg 36%
07:00 +15°C° 0 mm 1 m/s 744 mm Hg 32%
08:00 +18°C° 0 mm 1 m/s 744 mm Hg 28%
09:00 +20°C° 0 mm 2 m/s 744 mm Hg 24%
10:00 +21°C° 0 mm 2 m/s 744 mm Hg 21%
11:00 +24°C° 0 mm 2 m/s 744 mm Hg 19%
12:00 +26°C° 0 mm 2 m/s 743 mm Hg 16%
13:00 +26°C° 0 mm 2 m/s 743 mm Hg 15%
14:00 +27°C° 0 mm 2 m/s 743 mm Hg 14%
15:00 +28°C° 0 mm 2 m/s 743 mm Hg 13%
16:00 +26°C° 0 mm 2 m/s 742 mm Hg 14%
17:00 +25°C° 0 mm 2 m/s 742 mm Hg 16%
18:00 +23°C° 0 mm 2 m/s 741 mm Hg 18%
19:00 +21°C° 0 mm 2 m/s 741 mm Hg 20%
20:00 +19°C° 0 mm 2 m/s 741 mm Hg 22%
21:00 +18°C° 0 mm 2 m/s 741 mm Hg 25%
22:00 +17°C° 0 mm 2 m/s 741 mm Hg 26%
23:00 +16°C° 0 mm 2 m/s 741 mm Hg 28%

Domani, 24 Settembre, Giovedi

Tempo Temperatura Precipitazioni Vento Pressione Umidità
00:00 +16°C° 0 mm 2 m/s 741 mm Hg 30%
01:00 +15°C° 0 mm 2 m/s 741 mm Hg 31%
02:00 +15°C° 0 mm 2 m/s 741 mm Hg 33%
03:00 +15°C° 0 mm 2 m/s 741 mm Hg 35%
04:00 +14°C° 0 mm 2 m/s 741 mm Hg 36%
05:00 +14°C° 0 mm 2 m/s 741 mm Hg 37%
06:00 +14°C° 0 mm 2 m/s 741 mm Hg 39%
07:00 +16°C° 0 mm 2 m/s 741 mm Hg 36%
08:00 +18°C° 0 mm 3 m/s 742 mm Hg 34%
09:00 +20°C° 0 mm 3 m/s 742 mm Hg 31%
10:00 +22°C° 0 mm 3 m/s 742 mm Hg 30%
11:00 +25°C° 0 mm 4 m/s 742 mm Hg 28%
12:00 +27°C° 0 mm 4 m/s 742 mm Hg 26%
13:00 +28°C° 0 mm 4 m/s 741 mm Hg 25%
14:00 +28°C° 0 mm 4 m/s 741 mm Hg 23%
15:00 +29°C° 0 mm 4 m/s 741 mm Hg 21%
16:00 +27°C° 0 mm 4 m/s 741 mm Hg 24%
17:00 +26°C° 0 mm 3 m/s 740 mm Hg 26%
18:00 +24°C° 0 mm 3 m/s 740 mm Hg 29%
19:00 +22°C° 0 mm 3 m/s 740 mm Hg 31%
20:00 +21°C° 0 mm 3 m/s 741 mm Hg 33%
21:00 +19°C° 0 mm 4 m/s 741 mm Hg 35%
22:00 +18°C° 0 mm 3 m/s 741 mm Hg 37%
23:00 +18°C° 0 mm 3 m/s 741 mm Hg 39%

Dopodomani, 25 Settembre, Venerdi

Tempo Temperatura Precipitazioni Vento Pressione Umidità
00:00 +17°C° 0 mm 3 m/s 740 mm Hg 42%
01:00 +16°C° 0 mm 3 m/s 740 mm Hg 44%
02:00 +16°C° 0 mm 2 m/s 740 mm Hg 46%
03:00 +15°C° 0 mm 2 m/s 740 mm Hg 49%
04:00 +15°C° 0 mm 2 m/s 740 mm Hg 51%
05:00 +13°C° 0 mm 3 m/s 740 mm Hg 53%
06:00 +13°C° 0 mm 3 m/s 741 mm Hg 55%
07:00 +15°C° 0 mm 4 m/s 741 mm Hg 49%
08:00 +18°C° 0 mm 4 m/s 741 mm Hg 43%
09:00 +21°C° 0 mm 5 m/s 741 mm Hg 36%
10:00 +22°C° 0 mm 5 m/s 741 mm Hg 34%
11:00 +24°C° 0 mm 6 m/s 740 mm Hg 32%
12:00 +27°C° 0 mm 6 m/s 740 mm Hg 29%
13:00 +27°C° 0 mm 6 m/s 740 mm Hg 28%
14:00 +28°C° 0 mm 5 m/s 740 mm Hg 27%
15:00 +28°C° 0 mm 5 m/s 739 mm Hg 26%
16:00 +27°C° 0 mm 5 m/s 739 mm Hg 28%
17:00 +26°C° 0 mm 4 m/s 739 mm Hg 30%
18:00 +25°C° 0 mm 3 m/s 738 mm Hg 32%
19:00 +22°C° 0 mm 4 m/s 739 mm Hg 33%
20:00 +21°C° 0 mm 4 m/s 739 mm Hg 35%
21:00 +20°C° 0 mm 5 m/s 739 mm Hg 37%
22:00 +19°C° 0 mm 5 m/s 738 mm Hg 39%
23:00 +19°C° 0 mm 5 m/s 738 mm Hg 41%

26 Settembre, Sabato

Tempo Temperatura Precipitazioni Vento Pressione Umidità
00:00 +17°C° 0 mm 5 m/s 738 mm Hg 43%
01:00 +17°C° 0 mm 5 m/s 738 mm Hg 44%
02:00 +16°C° 0 mm 5 m/s 738 mm Hg 45%
03:00 +16°C° 0 mm 5 m/s 737 mm Hg 46%
04:00 +15°C° 0 mm 5 m/s 737 mm Hg 46%
05:00 +15°C° 0 mm 4 m/s 738 mm Hg 46%
06:00 +15°C° 0 mm 4 m/s 738 mm Hg 45%
07:00 +16°C° 0 mm 5 m/s 738 mm Hg 42%
08:00 +19°C° 0 mm 6 m/s 738 mm Hg 39%
09:00 +20°C° 0 mm 6 m/s 738 mm Hg 36%
10:00 +23°C° 0 mm 6 m/s 738 mm Hg 30%
11:00 +26°C° 0 mm 7 m/s 738 mm Hg 23%
12:00 +28°C° 0 mm 7 m/s 738 mm Hg 16%
13:00 +29°C° 0 mm 7 m/s 738 mm Hg 16%
14:00 +29°C° 0 mm 7 m/s 738 mm Hg 15%
15:00 +30°C° 0 mm 7 m/s 738 mm Hg 15%
16:00 +28°C° 0 mm 7 m/s 738 mm Hg 17%
17:00 +27°C° 0 mm 6 m/s 738 mm Hg 20%
18:00 +26°C° 0 mm 6 m/s 738 mm Hg 23%
19:00 +23°C° 0 mm 6 m/s 738 mm Hg 32%
20:00 +21°C° 0 mm 6 m/s 738 mm Hg 41%
21:00 +19°C° 0 mm 6 m/s 738 mm Hg 50%
22:00 +17°C° 0 mm 6 m/s 738 mm Hg 52%
23:00 +16°C° 0 mm 6 m/s 738 mm Hg 53%

27 Settembre, Domenica

Tempo Temperatura Precipitazioni Vento Pressione Umidità
00:00 +16°C° 0 mm 6 m/s 738 mm Hg 55%
01:00 +15°C° 0 mm 6 m/s 738 mm Hg 54%
02:00 +15°C° 0 mm 6 m/s 738 mm Hg 53%
03:00 +15°C° 0 mm 6 m/s 738 mm Hg 51%
04:00 +14°C° 0 mm 6 m/s 738 mm Hg 52%
05:00 +14°C° 0 mm 7 m/s 738 mm Hg 53%
06:00 +14°C° 0 mm 7 m/s 738 mm Hg 53%
07:00 +15°C° 0 mm 8 m/s 738 mm Hg 49%
08:00 +16°C° 0 mm 9 m/s 738 mm Hg 45%
09:00 +18°C° 0 mm 9 m/s 738 mm Hg 42%
10:00 +19°C° 0 mm 9 m/s 738 mm Hg 38%
11:00 +22°C° 0 mm 9 m/s 738 mm Hg 35%
12:00 +24°C° 0 mm 10 m/s 738 mm Hg 31%
13:00 +26°C° 0 mm 10 m/s 737 mm Hg 30%
14:00 +27°C° 0 mm 10 m/s 737 mm Hg 29%
15:00 +28°C° 0 mm 9 m/s 737 mm Hg 27%
16:00 +27°C° 0 mm 9 m/s 737 mm Hg 29%
17:00 +26°C° 0 mm 8 m/s 737 mm Hg 31%
18:00 +26°C° 0 mm 8 m/s 737 mm Hg 32%
19:00 +24°C° 0.1 mm 8 m/s 737 mm Hg 34%
20:00 +23°C° 0.1 mm 9 m/s 737 mm Hg 35%
21:00 +22°C° 0.1 mm 9 m/s 737 mm Hg 36%
22:00 +21°C° 0.2 mm 9 m/s 738 mm Hg 40%
23:00 +20°C° 0.2 mm 8 m/s 738 mm Hg 44%

28 Settembre, Lunedi

Tempo Temperatura Precipitazioni Vento Pressione Umidità
00:00 +18°C° 0.2 mm 8 m/s 738 mm Hg 49%
01:00 +17°C° 0.6 mm 7 m/s 738 mm Hg 53%
02:00 +17°C° 0.6 mm 7 m/s 738 mm Hg 58%
03:00 +16°C° 0.6 mm 6 m/s 739 mm Hg 62%
04:00 +15°C° 0.3 mm 5 m/s 739 mm Hg 66%
05:00 +15°C° 0.3 mm 5 m/s 739 mm Hg 69%
06:00 +14°C° 0.3 mm 4 m/s 740 mm Hg 72%
07:00 +15°C° 0 mm 4 m/s 740 mm Hg 69%
08:00 +17°C° 0 mm 4 m/s 741 mm Hg 66%
09:00 +18°C° 0 mm 3 m/s 741 mm Hg 63%
10:00 +20°C° 0 mm 3 m/s 741 mm Hg 54%
11:00 +22°C° 0 mm 3 m/s 742 mm Hg 46%
12:00 +25°C° 0 mm 3 m/s 742 mm Hg 38%
13:00 +25°C° 0 mm 3 m/s 742 mm Hg 33%
14:00 +26°C° 0 mm 3 m/s 742 mm Hg 29%
15:00 +26°C° 0 mm 2 m/s 742 mm Hg 24%
16:00 +25°C° 0 mm 2 m/s 742 mm Hg 27%
17:00 +24°C° 0 mm 2 m/s 742 mm Hg 29%
18:00 +22°C° 0 mm 1 m/s 742 mm Hg 32%
19:00 +21°C° 0 mm 1 m/s 742 mm Hg 35%
20:00 +20°C° 0 mm 1 m/s 742 mm Hg 39%
21:00 +19°C° 0 mm 1 m/s 742 mm Hg 43%
22:00 +18°C° 0 mm 2 m/s 742 mm Hg 45%
23:00 +18°C° 0 mm 2 m/s 742 mm Hg 48%
Mostrare altro